User: anonymous   Login
Location: Newark
(52.1031°N, 9.3600°E)
Time: 22:14:31
(UTC+00:00)
Language:

EO-88 - Orbit

View from above orbital plane
View from above orbital plane
View from above satellite
View from above satellite

Ground track
Ground track

The orbit data is extracted from the following two-line orbital elements,

1 42017U 17008BX  19345.13729340  .00001207  00000-0  49785-4 0  9998
2 42017  97.3847  50.2721 0004578 270.4958  89.5756 15.25965361156678
Epoch (UTC): 11 December 2019 03:17:42
Eccentricity: 0.0004578
inclination: 97.3847°
perigee height: 485 km
apogee height: 491 km
right ascension of ascending node: 50.2721°
argument of perigee: 270.4958°
revolutions per day: 15.25965361
mean anomaly at epoch: 89.5756°
orbit number at epoch: 15667

The dashed part of the orbit path shows where the satellite is in the earth's shadow,  

DLR